Terminal Aerodrome Forecast
Issued by NWS Amarillo, TX

Home | Current Version | Previous Version | Text Only | Print | Product List | Glossary On
Versions: 1 2 3 4 5 6 7 8 9 10 11 12 13
000
FTUS44 KAMA 310500
TAFGUY
TAF
KGUY 310520Z 3106/0106 17018KT P6SM FEW100
     FM311400 21020G29KT P6SM SCT110=

USA.gov is the U.S. government's official web portal to all federal, state and local government web resources and services.